ProjectID,Date,Electric Generation,Electric Utility Import,Facility Electric Load
,YYYY-MM-DD,kW,kW,kW
73,2010-01-01,21884.443291666666,,21884.443291666666
73,2010-01-02,22200.756333333335,,22200.756333333335
73,2010-01-03,22116.303208333335,,22116.303208333335
73,2010-01-04,23179.283208333334,,23179.283208333334
73,2010-01-05,23283.275375,,23283.275375
73,2010-01-06,22892.531416666665,,22892.531416666665
73,2010-01-07,13118.537291666667,,13118.537291666667
73,2010-01-08,13390.394541666667,,13390.394541666667
73,2010-01-09,22742.29570833333,,22742.29570833333
73,2010-01-10,22902.047708333335,,22902.047708333335
73,2010-01-11,19652.762916666667,,19652.762916666667
73,2010-01-12,21677.02391666667,,21677.02391666667
73,2010-01-13,25591.37954166667,,25591.37954166667
73,2010-01-14,23543.599041666665,,23543.599041666665
73,2010-01-15,24659.625958333334,,24659.625958333334
73,2010-01-16,17556.402833333334,,17556.402833333334
73,2010-01-17,15373.390333333335,,15373.390333333335
73,2010-01-18,15795.413583333333,,15795.413583333333
73,2010-01-19,16360.678708333333,,16360.678708333333
73,2010-01-20,16806.4335,,16806.4335
73,2010-01-21,17233.334958333333,,17233.334958333333
73,2010-01-22,23976.790916666665,,23976.790916666665
73,2010-01-23,9598.351583333333,,9598.351583333333
73,2010-01-24,6467.732,,6467.732
73,2010-01-25,10382.122791666667,,10382.122791666667
73,2010-01-26,16830.532291666666,,16830.532291666666
73,2010-01-27,17728.899208333332,,17728.899208333332
73,2010-01-28,15420.777333333333,,15420.777333333333
73,2010-01-29,3646.5182916666668,,3646.5182916666668
73,2010-01-30,3770.817541666667,,3770.817541666667
73,2010-01-31,17573.092041666667,,17573.092041666667
73,2010-02-01,30115.687291666665,,30115.687291666665
73,2010-02-02,27642.056541666665,,27642.056541666665
73,2010-02-03,27728.296583333333,,27728.296583333333
73,2010-02-04,25536.954125,,25536.954125
73,2010-02-05,26838.363041666667,,26838.363041666667
73,2010-02-06,25455.823625,,25455.823625
73,2010-02-07,25637.51229166667,,25637.51229166667
73,2010-02-08,27190.170583333336,,27190.170583333336
73,2010-02-09,27549.92375,,27549.92375
73,2010-02-10,27434.507583333336,,27434.507583333336
73,2010-02-11,28655.18079166667,,28655.18079166667
73,2010-02-12,28619.28283333333,,28619.28283333333
73,2010-02-13,25140.71995833333,,25140.71995833333
73,2010-02-14,24969.858833333332,,24969.858833333332
73,2010-02-15,27407.580875,,27407.580875
73,2010-02-16,25958.41295833333,,25958.41295833333
73,2010-02-17,27064.10108333333,,27064.10108333333
73,2010-02-18,26458.896416666666,,26458.896416666666
73,2010-02-19,26405.29466666667,,26405.29466666667
73,2010-02-20,26814.703541666666,,26814.703541666666
73,2010-02-21,26648.134666666665,,26648.134666666665
73,2010-02-22,24398.409416666665,,24398.409416666665
73,2010-02-23,27259.255791666666,,27259.255791666666
73,2010-02-24,26752.769750000003,,26752.769750000003
73,2010-02-25,26806.090583333335,,26806.090583333335
73,2010-02-26,26926.080166666667,,26926.080166666667
73,2010-02-27,23317.391583333334,,23317.391583333334
73,2010-02-28,24931.925416666665,,24931.925416666665
73,2010-03-01,26565.903291666666,,26565.903291666666
73,2010-03-02,26931.660541666668,,26931.660541666668
73,2010-03-03,27198.498125,,27198.498125
73,2010-03-04,25780.173375,,25780.173375
73,2010-03-05,26284.759625000002,,26284.759625000002
73,2010-03-06,25533.425083333335,,25533.425083333335
73,2010-03-07,26327.883666666665,,26327.883666666665
73,2010-03-08,27146.300166666668,,27146.300166666668
73,2010-03-09,26583.925083333335,,26583.925083333335
73,2010-03-10,16973.784041666666,,16973.784041666666
73,2010-03-11,21831.720624999998,,21831.720624999998
73,2010-03-12,28532.047791666668,,28532.047791666668
73,2010-03-13,25601.246958333333,,25601.246958333333
73,2010-03-14,24661.761208333333,,24661.761208333333
73,2010-03-15,20772.048208333334,,20772.048208333334
73,2010-03-16,24294.691708333336,,24294.691708333336
73,2010-03-17,19295.441375,,19295.441375
73,2010-03-18,23218.126875,,23218.126875
73,2010-03-19,26543.884333333335,,26543.884333333335
73,2010-03-20,28752.86375,,28752.86375
73,2010-03-21,28025.528041666665,,28025.528041666665
73,2010-03-22,27431.295166666667,,27431.295166666667
73,2010-03-23,26466.70925,,26466.70925
73,2010-03-24,22529.0085,,22529.0085
73,2010-03-25,22737.639833333335,,22737.639833333335
73,2010-03-26,26697.40895833333,,26697.40895833333
73,2010-03-27,25036.870750000002,,25036.870750000002
73,2010-03-28,25059.594500000003,,25059.594500000003
73,2010-03-29,8241.469833333334,,8241.469833333334
73,2010-03-30,15408.882708333333,,15408.882708333333
73,2010-03-31,23048.082541666667,,23048.082541666667
73,2010-04-01,23062.036333333333,,23062.036333333333
73,2010-04-02,10147.451458333333,,10147.451458333333
73,2010-04-03,0.0,,0.0
73,2010-04-04,3594.8024583333336,,3594.8024583333336
73,2010-04-05,1801.5530833333332,,1801.5530833333332
73,2010-04-06,14725.120666666668,,14725.120666666668
73,2010-04-07,10117.727083333333,,10117.727083333333
73,2010-04-08,10827.109666666667,,10827.109666666667
73,2010-04-09,27747.523541666666,,27747.523541666666
73,2010-04-10,24155.484625,,24155.484625
73,2010-04-11,23445.209416666665,,23445.209416666665
73,2010-04-12,26661.512666666666,,26661.512666666666
73,2010-04-13,27545.178083333332,,27545.178083333332
73,2010-04-14,27277.591166666665,,27277.591166666665
73,2010-04-15,25460.855874999997,,25460.855874999997
73,2010-04-16,25803.095833333336,,25803.095833333336
73,2010-04-17,26643.840916666668,,26643.840916666668
73,2010-04-18,25000.617583333336,,25000.617583333336
73,2010-04-19,26718.548874999997,,26718.548874999997
73,2010-04-20,26063.631458333333,,26063.631458333333
73,2010-04-21,25786.866250000003,,25786.866250000003
73,2010-04-22,27067.710958333333,,27067.710958333333
73,2010-04-23,27412.580041666664,,27412.580041666664
73,2010-04-24,18321.888666666666,,18321.888666666666
73,2010-04-25,15463.690333333334,,15463.690333333334
73,2010-04-26,21151.152375,,21151.152375
73,2010-04-27,28533.424541666667,,28533.424541666667
73,2010-04-28,23375.900791666663,,23375.900791666663
73,2010-04-29,23855.972291666665,,23855.972291666665
73,2010-04-30,23256.430291666667,,23256.430291666667
73,2010-05-01,26162.382625,,26162.382625
73,2010-05-02,25993.113041666667,,25993.113041666667
73,2010-05-03,19028.625833333335,,19028.625833333335
73,2010-05-04,14221.636833333332,,14221.636833333332
73,2010-05-05,9694.674791666666,,9694.674791666666
73,2010-05-06,17361.2855,,17361.2855
73,2010-05-07,18517.828458333333,,18517.828458333333
73,2010-05-08,19855.116208333333,,19855.116208333333
73,2010-05-09,29619.053750000003,,29619.053750000003
73,2010-05-10,28190.846583333332,,28190.846583333332
73,2010-05-11,29304.574125,,29304.574125
73,2010-05-12,29171.921000000002,,29171.921000000002
73,2010-05-13,29471.0,,29471.0
73,2010-05-14,29471.0,,29471.0
73,2010-05-15,29471.0,,29471.0
73,2010-05-16,29471.0,,29471.0
73,2010-05-17,29471.0,,29471.0
73,2010-05-18,29471.0,,29471.0
73,2010-05-19,29471.0,,29471.0
73,2010-05-20,29471.0,,29471.0
73,2010-05-21,29471.0,,29471.0
73,2010-05-22,29471.0,,29471.0
73,2010-05-23,29471.0,,29471.0
73,2010-05-24,29471.0,,29471.0
73,2010-05-25,3683.875,,3683.875
73,2010-05-26,0.0,,0.0
73,2010-05-27,0.0,,0.0
73,2010-05-28,0.0,,0.0
73,2010-05-29,0.0,,0.0
73,2010-05-30,0.0,,0.0
73,2010-05-31,0.0,,0.0
73,2010-06-01,0.0,,0.0
73,2010-06-02,0.0,,0.0
73,2010-06-03,0.0,,0.0
73,2010-06-04,5029.726708333334,,5029.726708333334
73,2010-06-05,1712.5417916666665,,1712.5417916666665
73,2010-06-06,11099.449374999998,,11099.449374999998
73,2010-06-07,12415.594166666668,,12415.594166666668
73,2010-06-08,14376.198458333332,,14376.198458333332
73,2010-06-09,14349.075416666667,,14349.075416666667
73,2010-06-10,14056.023666666668,,14056.023666666668
73,2010-06-11,9047.42,,9047.42
73,2010-06-12,5335.136291666667,,5335.136291666667
73,2010-06-13,12518.738,,12518.738
73,2010-06-14,13225.445708333333,,13225.445708333333
73,2010-06-15,10569.211333333333,,10569.211333333333
73,2010-06-16,9286.547666666667,,9286.547666666667
73,2010-06-17,15222.174791666666,,15222.174791666666
73,2010-06-18,7731.075333333333,,7731.075333333333
73,2010-06-19,1906.5408333333335,,1906.5408333333335
73,2010-06-20,647.5941666666666,,647.5941666666666
73,2010-06-21,7172.829708333334,,7172.829708333334
73,2010-06-22,7861.764125000001,,7861.764125000001
73,2010-06-23,2605.012458333333,,2605.012458333333
73,2010-06-24,5272.818916666666,,5272.818916666666
73,2010-06-25,4145.734916666667,,4145.734916666667
73,2010-06-26,7520.694333333333,,7520.694333333333
73,2010-06-27,0.0,,0.0
73,2010-06-28,4956.659125,,4956.659125
73,2010-06-29,6808.004375,,6808.004375
73,2010-06-30,12796.276625,,12796.276625
73,2010-07-01,13481.792291666667,,13481.792291666667
73,2010-07-02,10622.505500000001,,10622.505500000001
73,2010-07-03,4773.510875,,4773.510875
73,2010-07-04,2921.8304583333334,,2921.8304583333334
73,2010-07-05,1154.8932083333334,,1154.8932083333334
73,2010-07-06,8607.486791666666,,8607.486791666666
73,2010-07-07,8904.492708333333,,8904.492708333333
73,2010-07-08,11110.971666666666,,11110.971666666666
73,2010-07-09,0.0,,0.0
73,2010-07-10,0.0,,0.0
73,2010-07-11,1686.0654166666666,,1686.0654166666666
73,2010-07-12,1110.6478749999999,,1110.6478749999999
73,2010-07-13,2252.5867916666666,,2252.5867916666666
73,2010-07-14,6476.300875,,6476.300875
73,2010-07-15,18945.241125,,18945.241125
73,2010-07-16,1657.9787083333333,,1657.9787083333333
73,2010-07-17,0.0,,0.0
73,2010-07-18,0.0,,0.0
73,2010-07-19,5637.9205,,5637.9205
73,2010-07-20,11149.597083333334,,11149.597083333334
73,2010-07-21,9256.896208333334,,9256.896208333334
73,2010-07-22,558.518875,,558.518875
73,2010-07-23,2214.860458333333,,2214.860458333333
73,2010-07-24,0.0,,0.0
73,2010-07-25,541.8614583333333,,541.8614583333333
73,2010-07-26,4524.364375,,4524.364375
73,2010-07-27,3402.4795833333333,,3402.4795833333333
73,2010-07-28,1076.7690416666667,,1076.7690416666667
73,2010-07-29,562.3007083333333,,562.3007083333333
73,2010-07-30,5109.706375,,5109.706375
73,2010-07-31,4607.060583333333,,4607.060583333333
73,2010-08-01,554.3920833333333,,554.3920833333333
73,2010-08-02,2202.0967083333335,,2202.0967083333335
73,2010-08-03,759.0430416666667,,759.0430416666667
73,2010-08-04,11925.184125,,11925.184125
73,2010-08-05,688.5416666666666,,688.5416666666666
73,2010-08-06,1731.2779166666667,,1731.2779166666667
73,2010-08-07,6944.427583333333,,6944.427583333333
73,2010-08-08,6542.668666666667,,6542.668666666667
73,2010-08-09,15751.705625,,15751.705625
73,2010-08-10,5789.171249999999,,5789.171249999999
73,2010-08-11,15810.365375,,15810.365375
73,2010-08-12,1024.1149166666667,,1024.1149166666667
73,2010-08-13,0.0,,0.0
73,2010-08-14,0.0,,0.0
73,2010-08-15,0.0,,0.0
73,2010-08-16,0.0,,0.0
73,2010-08-17,0.0,,0.0
73,2010-08-18,0.0,,0.0
73,2010-08-19,0.0,,0.0
73,2010-08-20,0.0,,0.0
73,2010-08-21,0.0,,0.0
73,2010-08-22,0.0,,0.0
73,2010-08-23,0.0,,0.0
73,2010-08-24,0.0,,0.0
73,2010-08-25,0.0,,0.0
73,2010-08-26,0.0,,0.0
73,2010-08-27,0.0,,0.0
73,2010-08-28,0.0,,0.0
73,2010-08-29,0.0,,0.0
73,2010-08-30,0.0,,0.0
73,2010-08-31,0.0,,0.0
73,2010-09-01,0.0,,0.0
73,2010-09-02,0.0,,0.0
73,2010-09-03,0.0,,0.0
73,2010-09-04,0.0,,0.0
73,2010-09-05,0.0,,0.0
73,2010-09-06,0.0,,0.0
73,2010-09-07,0.0,,0.0
73,2010-09-08,0.0,,0.0
73,2010-09-09,0.0,,0.0
73,2010-09-10,0.0,,0.0
73,2010-09-11,0.0,,0.0
73,2010-09-12,0.0,,0.0
73,2010-09-13,0.0,,0.0
73,2010-09-14,0.0,,0.0
73,2010-09-15,0.0,,0.0
73,2010-09-16,0.0,,0.0
73,2010-09-17,0.0,,0.0
73,2010-09-18,0.0,,0.0
73,2010-09-19,0.0,,0.0
73,2010-09-20,0.0,,0.0
73,2010-09-21,0.0,,0.0
73,2010-09-22,0.0,,0.0
73,2010-09-23,0.0,,0.0
73,2010-09-24,0.0,,0.0
73,2010-09-25,0.0,,0.0
73,2010-09-26,0.0,,0.0
73,2010-09-27,0.0,,0.0
73,2010-09-28,0.0,,0.0
73,2010-09-29,0.0,,0.0
73,2010-09-30,0.0,,0.0
73,2010-10-01,0.0,,0.0
73,2010-10-02,0.0,,0.0
73,2010-10-03,0.0,,0.0
73,2010-10-04,0.0,,0.0
73,2010-10-05,0.0,,0.0
73,2010-10-06,0.0,,0.0
73,2010-10-07,0.0,,0.0
73,2010-10-08,0.0,,0.0
73,2010-10-09,0.0,,0.0
73,2010-10-10,0.0,,0.0
73,2010-10-11,0.0,,0.0
73,2010-10-12,0.0,,0.0
73,2010-10-13,0.0,,0.0
73,2010-10-14,0.0,,0.0
73,2010-10-15,0.0,,0.0
73,2010-10-16,0.0,,0.0
73,2010-10-17,0.0,,0.0
73,2010-10-18,0.0,,0.0
73,2010-10-19,0.0,,0.0
73,2010-10-20,0.0,,0.0
73,2010-10-21,0.0,,0.0
73,2010-10-22,0.0,,0.0
73,2010-10-23,0.0,,0.0
73,2010-10-24,0.0,,0.0
73,2010-10-25,11364.916208333334,,11364.916208333334
73,2010-10-26,16508.379833333332,,16508.379833333332
73,2010-10-27,13639.678125,,13639.678125
73,2010-10-28,13968.381916666667,,13968.381916666667
73,2010-10-29,23909.984083333333,,23909.984083333333
73,2010-10-30,28690.392041666666,,28690.392041666666
73,2010-10-31,29133.148166666666,,29133.148166666666
73,2010-11-01,24907.73929166667,,24907.73929166667
73,2010-11-02,23559.891125,,23559.891125
73,2010-11-03,22891.213375000003,,22891.213375000003
73,2010-11-04,28616.6825,,28616.6825
73,2010-11-05,28823.604958333333,,28823.604958333333
73,2010-11-06,29624.381583333336,,29624.381583333336
73,2010-11-07,24704.582416666668,,24704.582416666668
73,2010-11-08,24781.209166666667,,24781.209166666667
73,2010-11-09,29140.410875,,29140.410875
73,2010-11-10,29258.571208333335,,29258.571208333335
73,2010-11-11,25425.278000000002,,25425.278000000002
73,2010-11-12,21221.459,,21221.459
73,2010-11-13,28841.402583333333,,28841.402583333333
73,2010-11-14,27998.618416666664,,27998.618416666664
73,2010-11-15,26631.645374999996,,26631.645374999996
73,2010-11-16,28350.50670833333,,28350.50670833333
73,2010-11-17,26102.001,,26102.001
73,2010-11-18,6810.951333333333,,6810.951333333333
73,2010-11-19,14960.051083333334,,14960.051083333334
73,2010-11-20,14709.549708333334,,14709.549708333334
73,2010-11-21,14897.158000000001,,14897.158000000001
73,2010-11-22,14371.210500000001,,14371.210500000001
73,2010-11-23,14120.7935,,14120.7935
73,2010-11-24,14977.959499999999,,14977.959499999999
73,2010-11-25,14879.533916666667,,14879.533916666667
73,2010-11-26,14702.047833333332,,14702.047833333332
73,2010-11-27,14879.600166666665,,14879.600166666665
73,2010-11-28,14992.11475,,14992.11475
73,2010-11-29,14892.641624999998,,14892.641624999998
73,2010-11-30,8989.591541666667,,8989.591541666667
73,2010-12-01,13175.165583333333,,13175.165583333333
73,2010-12-02,12499.623791666667,,12499.623791666667
73,2010-12-03,15000.338291666667,,15000.338291666667
73,2010-12-04,14999.608291666666,,14999.608291666666
73,2010-12-05,14999.782958333335,,14999.782958333335
73,2010-12-06,14999.589458333334,,14999.589458333334
73,2010-12-07,15000.197875,,15000.197875
73,2010-12-08,15000.285958333334,,15000.285958333334
73,2010-12-09,20347.977916666667,,20347.977916666667
73,2010-12-10,28727.026166666667,,28727.026166666667
73,2010-12-11,14867.125958333332,,14867.125958333332
73,2010-12-12,13013.463458333334,,13013.463458333334
73,2010-12-13,14660.021999999999,,14660.021999999999
73,2010-12-14,14929.784416666667,,14929.784416666667
73,2010-12-15,14941.780583333333,,14941.780583333333
73,2010-12-16,19151.954958333332,,19151.954958333332
73,2010-12-17,28191.491250000003,,28191.491250000003
73,2010-12-18,27404.10483333333,,27404.10483333333
73,2010-12-19,14577.785750000001,,14577.785750000001
73,2010-12-20,29934.4705,,29934.4705
73,2010-12-21,29974.228458333335,,29974.228458333335
73,2010-12-22,28882.739041666664,,28882.739041666664
73,2010-12-23,29961.200125,,29961.200125
73,2010-12-24,29953.601291666666,,29953.601291666666
73,2010-12-25,29958.684125,,29958.684125
73,2010-12-26,29934.961,,29934.961
73,2010-12-27,28748.322791666666,,28748.322791666666
73,2010-12-28,21305.609916666665,,21305.609916666665
73,2010-12-29,29825.886791666668,,29825.886791666668
73,2010-12-30,29484.380958333335,,29484.380958333335
73,2010-12-31,28566.969541666665,,28566.969541666665
73,2011-01-01,27981.10025,,27981.10025
73,2011-01-02,29392.17125,,29392.17125
73,2011-01-03,26173.724666666665,,26173.724666666665
73,2011-01-04,29398.76441666667,,29398.76441666667
73,2011-01-05,29653.109666666667,,29653.109666666667
73,2011-01-06,27400.47875,,27400.47875
73,2011-01-07,26158.688791666664,,26158.688791666664
73,2011-01-08,25104.73441666667,,25104.73441666667
73,2011-01-09,30248.703666666668,,30248.703666666668
73,2011-01-10,25652.59525,,25652.59525
73,2011-01-11,30239.824083333337,,30239.824083333337
73,2011-01-12,30236.904541666667,,30236.904541666667
73,2011-01-13,30287.669791666664,,30287.669791666664
73,2011-01-14,30275.368124999997,,30275.368124999997
73,2011-01-15,30112.436041666664,,30112.436041666664
73,2011-01-16,22724.817375,,22724.817375
73,2011-01-17,15151.268208333333,,15151.268208333333
73,2011-01-18,14910.42175,,14910.42175
73,2011-01-19,15037.816958333335,,15037.816958333335
73,2011-01-20,16489.881166666666,,16489.881166666666
73,2011-01-21,24323.05908333333,,24323.05908333333
73,2011-01-22,30275.937916666666,,30275.937916666666
73,2011-01-23,22707.33704166667,,22707.33704166667
73,2011-01-24,0.0,,0.0
73,2011-01-25,30076.605125000002,,30076.605125000002
73,2011-01-26,29591.030458333335,,29591.030458333335
73,2011-01-27,29768.440875,,29768.440875
73,2011-01-28,29848.388208333334,,29848.388208333334
73,2011-01-29,30025.022375,,30025.022375
73,2011-01-30,28982.356083333332,,28982.356083333332
73,2011-01-31,3785.982,,3785.982
73,2011-02-01,22702.331791666667,,22702.331791666667
73,2011-02-02,23383.545208333333,,23383.545208333333
73,2011-02-03,11344.030416666666,,11344.030416666666
73,2011-02-04,23746.412458333332,,23746.412458333332
73,2011-02-05,29469.59379166667,,29469.59379166667
73,2011-02-06,29786.595458333333,,29786.595458333333
73,2011-02-07,29521.872375000003,,29521.872375000003
73,2011-02-08,13717.253541666667,,13717.253541666667
73,2011-02-09,13829.586708333334,,13829.586708333334
73,2011-02-10,8825.337458333333,,8825.337458333333
73,2011-02-11,2515.9110416666667,,2515.9110416666667
73,2011-02-12,18669.248208333334,,18669.248208333334
73,2011-02-13,19242.040166666666,,19242.040166666666
73,2011-02-14,28563.812166666667,,28563.812166666667
73,2011-02-15,11349.090375,,11349.090375
73,2011-02-16,29500.199458333333,,29500.199458333333
73,2011-02-17,24388.512458333335,,24388.512458333335
73,2011-02-18,11836.376083333334,,11836.376083333334
73,2011-02-19,14821.688166666667,,14821.688166666667
73,2011-02-20,25189.83145833333,,25189.83145833333
73,2011-02-21,7538.882166666666,,7538.882166666666
73,2011-02-22,0.0,,0.0
73,2011-02-23,17599.755083333333,,17599.755083333333
73,2011-02-24,29702.007375,,29702.007375
73,2011-02-25,29602.966166666665,,29602.966166666665
73,2011-02-26,22572.339541666664,,22572.339541666664
73,2011-02-27,29475.007500000003,,29475.007500000003
73,2011-02-28,28938.501999999997,,28938.501999999997
73,2011-03-01,24950.477708333332,,24950.477708333332
73,2011-03-02,21017.043958333332,,21017.043958333332
73,2011-03-03,5041.703208333333,,5041.703208333333
73,2011-03-04,23558.51783333333,,23558.51783333333
73,2011-03-05,28628.405833333334,,28628.405833333334
73,2011-03-06,25787.370625,,25787.370625
73,2011-03-07,26450.206166666667,,26450.206166666667
73,2011-03-08,18743.728,,18743.728
73,2011-03-09,29827.813916666666,,29827.813916666666
73,2011-03-10,21904.107083333332,,21904.107083333332
73,2011-03-11,24163.0205,,24163.0205
73,2011-03-12,28844.6145,,28844.6145
73,2011-03-13,29409.646416666666,,29409.646416666666
73,2011-03-14,30015.242125,,30015.242125
73,2011-03-15,24158.401875,,24158.401875
73,2011-03-16,23245.073375000004,,23245.073375000004
73,2011-03-17,12663.955750000001,,12663.955750000001
73,2011-03-18,3576.294875,,3576.294875
73,2011-03-19,26212.395999999997,,26212.395999999997
73,2011-03-20,29554.779375,,29554.779375
73,2011-03-21,18601.746125,,18601.746125
73,2011-03-22,14706.326416666665,,14706.326416666665
73,2011-03-23,15615.178083333332,,15615.178083333332
73,2011-03-24,18593.676083333336,,18593.676083333336
73,2011-03-25,7518.2730833333335,,7518.2730833333335
73,2011-03-26,5000.102791666667,,5000.102791666667
73,2011-03-27,6202.565666666666,,6202.565666666666
73,2011-03-28,12343.105041666668,,12343.105041666668
73,2011-03-29,20896.166166666666,,20896.166166666666
73,2011-03-30,15764.954666666667,,15764.954666666667
73,2011-03-31,20179.119125,,20179.119125
73,2011-04-01,19683.275875,,19683.275875
73,2011-04-02,20421.728958333333,,20421.728958333333
73,2011-04-03,28571.26504166667,,28571.26504166667
73,2011-04-04,27662.754833333336,,27662.754833333336
73,2011-04-05,27312.938791666664,,27312.938791666664
73,2011-04-06,29064.889208333334,,29064.889208333334
73,2011-04-07,28879.874791666665,,28879.874791666665
73,2011-04-08,28879.763583333333,,28879.763583333333
73,2011-04-09,28245.232041666666,,28245.232041666666
73,2011-04-10,27548.950291666668,,27548.950291666668
73,2011-04-11,26080.68808333333,,26080.68808333333
73,2011-04-12,27842.756833333333,,27842.756833333333
73,2011-04-13,28390.504249999998,,28390.504249999998
73,2011-04-14,28476.902458333334,,28476.902458333334
73,2011-04-15,28854.383124999997,,28854.383124999997
73,2011-04-16,16958.606583333334,,16958.606583333334
73,2011-04-17,14204.014416666667,,14204.014416666667
73,2011-04-18,14554.595125,,14554.595125
73,2011-04-19,14684.760083333334,,14684.760083333334
73,2011-04-20,13766.195541666668,,13766.195541666668
73,2011-04-21,19365.941708333336,,19365.941708333336
73,2011-04-22,30102.943416666665,,30102.943416666665
73,2011-04-23,28395.425583333334,,28395.425583333334
73,2011-04-24,18052.308291666664,,18052.308291666664
73,2011-04-25,14252.138458333333,,14252.138458333333
73,2011-04-26,10329.250583333333,,10329.250583333333
73,2011-04-27,9244.862875,,9244.862875
73,2011-04-28,11500.522875,,11500.522875
73,2011-04-29,26018.694124999998,,26018.694124999998
73,2011-04-30,29175.081125,,29175.081125
73,2011-05-01,19719.10225,,19719.10225
73,2011-05-02,15869.284333333335,,15869.284333333335
73,2011-05-03,24503.906,,24503.906
73,2011-05-04,29690.951833333336,,29690.951833333336
73,2011-05-05,29119.031791666668,,29119.031791666668
73,2011-05-06,28294.650125,,28294.650125
73,2011-05-07,19153.413333333334,,19153.413333333334
73,2011-05-08,28590.47604166667,,28590.47604166667
73,2011-05-09,28701.93195833333,,28701.93195833333
73,2011-05-10,20988.949083333333,,20988.949083333333
73,2011-05-11,17806.158541666668,,17806.158541666668
73,2011-05-12,9914.691499999999,,9914.691499999999
73,2011-05-13,9162.957,,9162.957
73,2011-05-14,13788.8025,,13788.8025
73,2011-05-15,16673.830625,,16673.830625
73,2011-05-16,28865.055958333334,,28865.055958333334
73,2011-05-17,22488.958916666666,,22488.958916666666
73,2011-05-18,13599.511208333332,,13599.511208333332
73,2011-05-19,13729.868166666667,,13729.868166666667
73,2011-05-20,12626.801875,,12626.801875
73,2011-05-21,6899.324083333333,,6899.324083333333
73,2011-05-22,7438.57,,7438.57
73,2011-05-23,7353.605833333334,,7353.605833333334
73,2011-05-24,7859.975833333334,,7859.975833333334
73,2011-05-25,7512.649875,,7512.649875
73,2011-05-26,1683.8547083333333,,1683.8547083333333
73,2011-05-27,2809.756625,,2809.756625
73,2011-05-28,1125.6312083333335,,1125.6312083333335
73,2011-05-29,554.3939583333333,,554.3939583333333
73,2011-05-30,0.0,,0.0
73,2011-05-31,0.0,,0.0
73,2011-06-01,0.0,,0.0
73,2011-06-02,1204.7137500000001,,1204.7137500000001
73,2011-06-03,11973.288333333332,,11973.288333333332
73,2011-06-04,11926.952416666667,,11926.952416666667
73,2011-06-05,7034.364416666667,,7034.364416666667
73,2011-06-06,5927.080000000001,,5927.080000000001
73,2011-06-07,5222.679041666667,,5222.679041666667
73,2011-06-08,14454.692416666667,,14454.692416666667